SCP
0 0 0 0 0 0 0 0 0 0 0 0 0 0 0 0 0 0 0 0 0 0 0 0 0 0 0 0 0 0 0 0 0 0 0 0 0 0
0 0 0 0 0 0 0 0 0 0 0 0 0 0 0 0 0 0 0 0 0 0 0 0 0 0 0 0 0 0 0 0 0 0 0 0 0 0
0 0 0 0 0 0 0 0 0 0 0 0 0 0 0 0 0 0 0 0 0 0 0 0 0 0 0 0 0 0 0 0 0 0 0 0 0 0
0 0 0 0 0 0 0 0 0 0 0 0 0 0 0 0 0 0 0 0 0 0 0 0 0 0 0 0 0 0 0 0 0 0 0 0 0 0
0 0 0 0 0 0 0 0 0 0 0 0 0 0 0 0 0 0 0 0 0 0 0 0 0 0 0 0 0 0 0 0 0 0 0 0 0 0
0 0 0 0 0 0 0 0 0 0 0 0 0 0 0 0 0 0 0 0 0 0 0 0 0 0 0 0 0 0 0 0 0 0 0 0 0 0
0 0 0 0 0 0 0 0 0 0 0 0 0 0 0 0 0 0 0 0 0 0 0 0 0 0 0 0 0 0 0 0 0 0 0 0 0 0
0 0 0 0 0 0 0 0 0 0 0 0 0 0 0 0 0 0 0 0 0 0 0 0 0 0 0 0 0 0 0 0 0 0 0 0 0 0
0 0 0 0 0 0 0 0 0 0 0 0 0 0 0 0 0 0 0 0 0 0 0 0 0 0 0 0 0 0 0 0 0 0 0 0 0 0
0 0 0 0 0 0 0 0 0 0 0 0 0 0 0 0 0 0 0 0 0 0 0 0 0 0 0 0 0 0 0 0 0 0 0 0 0 0
0 0 0 0 0 0 0 0 0 0 0 0 0 0 0 0 0 0 0 0 0 0 0 0 0 0 0 0 0 0 0 0 0 0 0 0 0 0
0 0 0 0 0 0 0 0 0 0 0 0 0 0 0 0 0 0 0 0 0 0 0 0 0 0 0 0 0 0 0 0 0 0 0 0 0 0
0 0 0 0 0 0 0 0 0 0 0 0 0 0 0 0 0 0 0 0 0 0 0 0 0 0 0 0 0 0 0 0 0 0 0 0 0 0
0 0 0 0 0 0 0 0 0 0 0 0 0 0 0 0 0 0 0 0 0 0 0 0 0 0 0 0 0 0 0 0 0 0 0 0 0 0
0 0 0 0 -0 -0 0 0 0 0 0 0 0 0 0 0 0 0 0 0 0 0 0 0 0 0 0 0 0 0 0 0 0 0 0 0 0 0
0 0 -0 -0 0 0 0 0 0 0 0 0 0 0 0 0 0 0 0 0 0 0 0 0 0 0 0 0 0 0 0 0 0 0 0 0 0 0
0 0 0 0 0 0 0 -0 0 0 0 0 0 0 0 0 0 0 0 0 0 0 0 0 0 0 0 0 0 0 0 0 0 0 0 0 0 0
0 0 0 0 0 0 0 0 0 0 0 0 0 0 0 0 0 0 0 0 0 0 0 0 0 0 0 0 0 0 0 0 0 0 0 0 0 0
0 0 0 0 0 0 0 0 0 0 0 0 0 0 0 0 0 0 0 0 0 0 0 0 0 0 0 0 0 0 0 0 0 0 0 0 0 0
0 0 0 0 0 0 0 0 0 0 0 0 0 0 0 0 0 0 0 0 0 0 0 0 0 0 0 0 0 0 0 0 0 0 0 0 0 0
0 0 0 0 0 0 0 0 0 0 0 0 0 0 0 0 0 0 0 0 0 0 0 0 0 0 0 0 0 0 0 0 0 0 0 0 0 0
0 0 0 0 0 0 0 0 0 0 0 0 0 0 0 0 0 0 0 0 0 0 0 0 0 0 0 0 0 0 0 0 0 0 0 0 0 0
0 0 0 0 0 0 0 0 0 0 0 0 0 0 0 0 0 0 0 0 0 0 0 0 0 0 0 0 0 0 0 0 0 0 0 0 0 -0
Wind_Speed_500mb
104 107 107 91 110 106 112 110 93 66 77 81 81 78 84 89 83 76 71 64 58 51 44 39 46 35 39 39 39 41 44 39 36 41 47 47 51 50
96 109 104 105 98 101 96 92 99 93 85 75 76 81 66 80 82 71 73 65 60 52 44 44 45 40 41 41 42 44 48 47 44 44 48 50 52 55
91 100 100 100 108 92 95 92 87 86 95 88 74 62 64 70 54 72 71 66 60 53 48 52 40 43 42 41 43 49 50 53 53 47 51 50 52 55
87 92 96 98 92 99 90 96 82 81 91 92 78 73 73 52 54 69 69 62 57 51 51 51 42 41 40 39 47 48 54 58 59 60 50 51 54 57
82 87 92 96 91 97 82 94 79 85 81 85 86 67 58 60 57 60 60 56 53 57 52 46 42 37 40 46 45 50 57 59 63 64 52 50 57 59
71 79 84 84 85 87 92 91 83 78 75 79 73 70 57 50 60 62 57 59 65 49 45 45 40 46 41 44 50 55 57 59 61 55 48 54 60 66
72 75 73 77 77 78 81 83 78 72 74 74 69 59 51 59 62 56 64 66 51 44 48 54 46 42 44 46 54 56 56 57 48 47 51 60 64 61
74 71 73 71 72 76 75 71 60 65 70 67 61 50 48 53 62 57 50 48 50 52 53 52 44 48 45 48 52 52 51 51 43 46 55 55 57 68
68 65 64 66 66 66 63 58 55 52 46 53 44 44 53 59 44 50 43 47 49 51 51 51 47 52 48 48 45 47 56 44 45 43 48 57 64 69
61 61 61 60 57 51 51 47 40 37 43 41 46 53 47 27 22 33 41 48 50 50 47 54 52 53 50 43 48 53 50 51 55 64 71 69 58 58
55 54 52 49 43 33 32 36 40 46 45 47 35 26 16 26 26 30 39 45 46 50 46 51 54 51 49 52 47 45 45 58 65 68 66 54 41 43
45 43 39 33 30 23 28 37 50 45 47 54 31 13 21 27 24 32 37 43 44 47 46 44 45 42 39 48 34 53 58 58 60 56 48 38 34 42
30 26 20 16 20 19 22 30 29 28 42 32 14 21 27 29 32 38 45 49 48 51 57 49 53 48 46 52 56 59 58 53 54 44 35 33 32 37
13 11 12 15 22 21 24 25 28 29 24 19 33 41 41 37 38 39 39 46 53 49 47 46 50 51 51 55 59 53 52 47 46 35 34 35 34 36
17 19 21 22 27 28 22 24 31 27 31 41 40 37 33 39 40 37 38 39 38 39 44 47 51 53 49 53 53 55 52 47 29 40 35 36 40 41
27 27 26 27 28 25 24 30 34 38 43 40 37 35 42 41 38 36 37 38 41 45 47 50 50 47 50 47 49 50 40 38 38 38 41 36 36 34
26 24 24 24 26 28 33 38 39 38 37 36 39 42 40 39 38 38 40 42 45 44 46 46 47 48 49 47 48 43 38 36 35 41 43 41 36 34
20 17 14 11 11 14 19 23 28 31 33 38 40 38 37 37 36 37 41 42 44 46 45 46 44 45 49 42 39 40 30 35 36 39 38 45 42 34
9 5 3 7 11 18 24 26 27 30 35 37 36 33 35 37 39 41 42 44 43 43 46 44 41 40 43 44 33 39 34 33 42 41 38 38 44 39
7 6 9 13 18 22 24 27 30 30 31 31 32 35 37 36 38 39 38 39 42 44 43 40 38 37 37 39 35 31 33 36 39 44 43 41 38 34
4 6 11 14 17 20 22 24 27 30 32 33 34 35 34 33 34 35 37 39 40 39 38 35 34 35 33 36 39 39 31 27 35 41 45 47 43 41
4 9 15 18 21 23 26 28 30 33 34 34 35 36 36 36 36 36 36 36 35 35 36 34 34 32 33 36 39 40 38 31 27 32 33 32 34 34
12 15 19 22 24 27 29 31 33 34 35 36 36 37 38 38 38 37 36 33 33 34 34 34 32 34 33 35 38 38 36 35 36 25 16 24 27 28
Wind_Direction_500mb
258 261 263 256 269 260 263 261 258 258 255 253 256 256 245 236 237 241 238 238 238 241 249 259 264 266 273 277 282 286 292 299 299 304 306 306 309 309
254 259 262 256 265 260 269 265 262 264 256 267 264 256 249 234 238 240 238 235 237 241 252 261 260 267 272 279 282 287 291 294 298 301 304 303 305 308
257 257 260 263 265 264 262 259 261 262 257 259 258 245 238 248 232 237 232 232 235 241 252 260 262 268 274 279 286 291 294 297 299 301 306 304 305 305
260 259 259 259 262 267 266 260 259 266 256 252 246 247 256 230 236 236 228 229 234 242 257 257 263 269 273 285 289 294 296 299 300 305 303 304 303 303
257 258 261 261 265 263 264 265 263 264 258 248 251 248 227 236 228 220 223 228 236 245 254 258 262 267 283 285 293 294 295 299 301 303 303 303 302 305
261 264 265 262 266 267 267 259 258 261 254 248 237 236 236 222 222 216 219 230 240 248 249 253 256 271 279 286 292 294 296 298 301 306 304 299 302 305
260 266 264 267 265 267 266 262 261 257 250 240 238 227 215 217 210 218 225 239 249 244 242 251 267 266 278 292 294 295 298 301 304 301 299 303 302 303
261 264 267 264 263 268 265 259 258 254 248 232 219 209 205 208 221 228 240 244 250 248 253 265 263 275 287 291 292 297 301 303 304 302 301 300 302 304
260 264 266 266 268 267 262 260 252 250 242 227 205 196 211 223 229 233 261 257 251 265 265 267 273 285 292 293 299 302 302 297 292 303 308 304 305 306
260 265 266 269 266 262 256 253 238 213 200 180 191 220 236 230 263 291 272 257 262 265 268 278 286 291 296 300 303 302 299 303 301 299 306 311 315 314
260 261 262 260 256 250 244 234 217 201 192 185 209 207 241 275 273 281 273 269 269 268 271 281 287 296 302 304 304 301 305 307 305 307 314 320 326 320
254 255 259 258 250 227 233 222 206 202 184 200 219 228 262 270 290 291 281 268 264 271 275 278 289 299 306 302 296 303 303 304 307 319 324 328 331 318
254 256 251 227 202 219 217 204 188 183 203 211 226 263 280 288 295 291 276 267 264 265 274 279 287 291 291 292 294 301 304 311 316 321 326 326 331 329
227 199 176 178 185 180 172 176 205 212 202 234 261 271 279 282 290 280 265 257 258 262 271 278 282 288 291 293 297 300 305 312 314 316 322 326 330 331
140 136 142 145 153 162 195 213 200 226 256 271 270 276 280 286 283 273 266 260 259 270 273 276 282 287 289 291 294 300 308 313 304 317 318 324 333 332
127 131 140 153 168 186 192 211 233 255 266 268 273 277 285 286 283 276 271 263 267 269 268 277 283 288 292 293 294 298 301 300 305 309 313 321 325 325
126 133 143 159 180 199 216 236 250 258 269 279 285 287 284 282 279 276 264 255 257 264 275 280 286 292 292 295 295 296 295 294 298 309 311 314 323 329
125 126 136 159 193 218 235 251 259 266 273 278 279 282 282 280 274 260 252 257 268 276 279 284 288 287 289 291 292 292 290 292 297 307 307 309 318 333
110 105 164 230 243 254 265 271 275 279 279 278 279 276 274 273 269 265 267 270 273 277 281 282 281 283 285 290 291 296 293 297 301 303 306 309 314 326
188 213 235 244 257 266 270 266 265 266 269 273 273 274 275 274 270 269 270 273 276 277 278 278 280 281 284 289 292 288 293 299 299 304 309 309 312 320
229 273 290 289 289 292 294 293 289 285 283 282 280 278 276 273 271 272 274 275 277 279 280 282 280 281 283 285 289 299 298 295 298 301 307 308 315 321
276 294 297 299 301 299 296 292 288 286 283 280 278 275 274 274 275 276 276 276 276 276 279 280 281 281 283 285 291 295 302 302 296 299 297 296 299 302
323 314 306 306 306 303 299 296 292 286 282 280 277 274 273 274 276 279 278 276 275 277 278 279 279 280 282 284 288 295 303 308 308 311 296 291 292 295
Wind_Speed_850mb
104 107 107 91 110 106 112 110 93 66 77 81 81 78 84 89 83 76 71 64 58 51 44 39 46 35 39 39 39 41 44 39 36 41 47 47 51 50
96 109 104 105 98 101 96 92 99 93 85 75 76 81 66 80 82 71 73 65 60 52 44 44 45 40 41 41 42 44 48 47 44 44 48 50 52 55
91 100 100 100 108 92 95 92 87 86 95 88 74 62 64 70 54 72 71 66 60 53 48 52 40 43 42 41 43 49 50 53 53 47 51 50 52 55
87 92 96 98 92 99 90 96 82 81 91 92 78 73 73 52 54 69 69 62 57 51 51 51 42 41 40 39 47 48 54 58 59 60 50 51 54 57
82 87 92 96 91 97 82 94 79 85 81 85 86 67 58 60 57 60 60 56 53 57 52 46 42 37 40 46 45 50 57 59 63 64 52 50 57 59
71 79 84 84 85 87 92 91 83 78 75 79 73 70 57 50 60 62 57 59 65 49 45 45 40 46 41 44 50 55 57 59 61 55 48 54 60 66
72 75 73 77 77 78 81 83 78 72 74 74 69 59 51 59 62 56 64 66 51 44 48 54 46 42 44 46 54 56 56 57 48 47 51 60 64 61
74 71 73 71 72 76 75 71 60 65 70 67 61 50 48 53 62 57 50 48 50 52 53 52 44 48 45 48 52 52 51 51 43 46 55 55 57 68
68 65 64 66 66 66 63 58 55 52 46 53 44 44 53 59 44 50 43 47 49 51 51 51 47 52 48 48 45 47 56 44 45 43 48 57 64 69
61 61 61 60 57 51 51 47 40 37 43 41 46 53 47 27 22 33 41 48 50 50 47 54 52 53 50 43 48 53 50 51 55 64 71 69 58 58
55 54 52 49 43 33 32 36 40 46 45 47 35 26 16 26 26 30 39 45 46 50 46 51 54 51 49 52 47 45 45 58 65 68 66 54 41 43
45 43 39 33 30 23 28 37 50 45 47 54 31 13 21 27 24 32 37 43 44 47 46 44 45 42 39 48 34 53 58 58 60 56 48 38 34 42
30 26 20 16 20 19 22 30 29 28 42 32 14 21 27 29 32 38 45 49 48 51 57 49 53 48 46 52 56 59 58 53 54 44 35 33 32 37
13 11 12 15 22 21 24 25 28 29 24 19 33 41 41 37 38 39 39 46 53 49 47 46 50 51 51 55 59 53 52 47 46 35 34 35 34 36
17 19 21 22 27 28 22 24 31 27 31 41 40 37 33 39 40 37 38 39 38 39 44 47 51 53 49 53 53 55 52 47 29 40 35 36 40 41
27 27 26 27 28 25 24 30 34 38 43 40 37 35 42 41 38 36 37 38 41 45 47 50 50 47 50 47 49 50 40 38 38 38 41 36 36 34
26 24 24 24 26 28 33 38 39 38 37 36 39 42 40 39 38 38 40 42 45 44 46 46 47 48 49 47 48 43 38 36 35 41 43 41 36 34
20 17 14 11 11 14 19 23 28 31 33 38 40 38 37 37 36 37 41 42 44 46 45 46 44 45 49 42 39 40 30 35 36 39 38 45 42 34
9 5 3 7 11 18 24 26 27 30 35 37 36 33 35 37 39 41 42 44 43 43 46 44 41 40 43 44 33 39 34 33 42 41 38 38 44 39
7 6 9 13 18 22 24 27 30 30 31 31 32 35 37 36 38 39 38 39 42 44 43 40 38 37 37 39 35 31 33 36 39 44 43 41 38 34
4 6 11 14 17 20 22 24 27 30 32 33 34 35 34 33 34 35 37 39 40 39 38 35 34 35 33 36 39 39 31 27 35 41 45 47 43 41
4 9 15 18 21 23 26 28 30 33 34 34 35 36 36 36 36 36 36 36 35 35 36 34 34 32 33 36 39 40 38 31 27 32 33 32 34 34
12 15 19 22 24 27 29 31 33 34 35 36 36 37 38 38 38 37 36 33 33 34 34 34 32 34 33 35 38 38 36 35 36 25 16 24 27 28
Wind_Direction_850mb
258 261 263 256 269 260 263 261 258 258 255 253 256 256 245 236 237 241 238 238 238 241 249 259 264 266 273 277 282 286 292 299 299 304 306 306 309 309
254 259 262 256 265 260 269 265 262 264 256 267 264 256 249 234 238 240 238 235 237 241 252 261 260 267 272 279 282 287 291 294 298 301 304 303 305 308
257 257 260 263 265 264 262 259 261 262 257 259 258 245 238 248 232 237 232 232 235 241 252 260 262 268 274 279 286 291 294 297 299 301 306 304 305 305
260 259 259 259 262 267 266 260 259 266 256 252 246 247 256 230 236 236 228 229 234 242 257 257 263 269 273 285 289 294 296 299 300 305 303 304 303 303
257 258 261 261 265 263 264 265 263 264 258 248 251 248 227 236 228 220 223 228 236 245 254 258 262 267 283 285 293 294 295 299 301 303 303 303 302 305
261 264 265 262 266 267 267 259 258 261 254 248 237 236 236 222 222 216 219 230 240 248 249 253 256 271 279 286 292 294 296 298 301 306 304 299 302 305
260 266 264 267 265 267 266 262 261 257 250 240 238 227 215 217 210 218 225 239 249 244 242 251 267 266 278 292 294 295 298 301 304 301 299 303 302 303
261 264 267 264 263 268 265 259 258 254 248 232 219 209 205 208 221 228 240 244 250 248 253 265 263 275 287 291 292 297 301 303 304 302 301 300 302 304
260 264 266 266 268 267 262 260 252 250 242 227 205 196 211 223 229 233 261 257 251 265 265 267 273 285 292 293 299 302 302 297 292 303 308 304 305 306
260 265 266 269 266 262 256 253 238 213 200 180 191 220 236 230 263 291 272 257 262 265 268 278 286 291 296 300 303 302 299 303 301 299 306 311 315 314
260 261 262 260 256 250 244 234 217 201 192 185 209 207 241 275 273 281 273 269 269 268 271 281 287 296 302 304 304 301 305 307 305 307 314 320 326 320
254 255 259 258 250 227 233 222 206 202 184 200 219 228 262 270 290 291 281 268 264 271 275 278 289 299 306 302 296 303 303 304 307 319 324 328 331 318
254 256 251 227 202 219 217 204 188 183 203 211 226 263 280 288 295 291 276 267 264 265 274 279 287 291 291 292 294 301 304 311 316 321 326 326 331 329
227 199 176 178 185 180 172 176 205 212 202 234 261 271 279 282 290 280 265 257 258 262 271 278 282 288 291 293 297 300 305 312 314 316 322 326 330 331
140 136 142 145 153 162 195 213 200 226 256 271 270 276 280 286 283 273 266 260 259 270 273 276 282 287 289 291 294 300 308 313 304 317 318 324 333 332
127 131 140 153 168 186 192 211 233 255 266 268 273 277 285 286 283 276 271 263 267 269 268 277 283 288 292 293 294 298 301 300 305 309 313 321 325 325
126 133 143 159 180 199 216 236 250 258 269 279 285 287 284 282 279 276 264 255 257 264 275 280 286 292 292 295 295 296 295 294 298 309 311 314 323 329
125 126 136 159 193 218 235 251 259 266 273 278 279 282 282 280 274 260 252 257 268 276 279 284 288 287 289 291 292 292 290 292 297 307 307 309 318 333
110 105 164 230 243 254 265 271 275 279 279 278 279 276 274 273 269 265 267 270 273 277 281 282 281 283 285 290 291 296 293 297 301 303 306 309 314 326
188 213 235 244 257 266 270 266 265 266 269 273 273 274 275 274 270 269 270 273 276 277 278 278 280 281 284 289 292 288 293 299 299 304 309 309 312 320
229 273 290 289 289 292 294 293 289 285 283 282 280 278 276 273 271 272 274 275 277 279 280 282 280 281 283 285 289 299 298 295 298 301 307 308 315 321
276 294 297 299 301 299 296 292 288 286 283 280 278 275 274 274 275 276 276 276 276 276 279 280 281 281 283 285 291 295 302 302 296 299 297 296 299 302
323 314 306 306 306 303 299 296 292 286 282 280 277 274 273 274 276 279 278 276 275 277 278 279 279 280 282 284 288 295 303 308 308 311 296 291 292 295